• în Republica Moldova
  • Lista ţărilor
  • Pe 7 zile
  • Temperatura apei
  • Hartă satelitară
  • Meteo pe hartă
  • Widget-uri
  • user-avatar
    Intrare

    Meteo pe oră la Townsville

    Astăzi, 23 Ianuarie, Marţi

    Timp Temperatura Precipitaţii Vânt Presiune Umiditate
    00:00 +26°C° 0,1 mm 4 m/s 749 mmHg 89%
    01:00 +26°C° 0,1 mm 4 m/s 749 mmHg 90%
    02:00 +26°C° 0,1 mm 4 m/s 749 mmHg 91%
    03:00 +26°C° 0,1 mm 4 m/s 749 mmHg 91%
    04:00 +26°C° 0 mm 4 m/s 748 mmHg 92%
    05:00 +26°C° 0,3 mm 4 m/s 749 mmHg 91%
    06:00 +26°C° 0,3 mm 4 m/s 749 mmHg 90%
    07:00 +26°C° 0,3 mm 5 m/s 749 mmHg 89%
    08:00 +28°C° 0,3 mm 5 m/s 749 mmHg 80%
    09:00 +30°C° 0,3 mm 5 m/s 749 mmHg 70%
    10:00 +32°C° 0 mm 5 m/s 749 mmHg 64%
    11:00 +32°C° 0,4 mm 5 m/s 749 mmHg 65%
    12:00 +32°C° 0,4 mm 5 m/s 748 mmHg 65%
    13:00 +32°C° 0,4 mm 5 m/s 748 mmHg 66%
    14:00 +32°C° 0,6 mm 5 m/s 748 mmHg 69%
    15:00 +30°C° 0,6 mm 5 m/s 748 mmHg 73%
    16:00 +28°C° 0 mm 5 m/s 748 mmHg 80%
    17:00 +28°C° 0,8 mm 5 m/s 748 mmHg 84%
    18:00 +27°C° 0,8 mm 4 m/s 748 mmHg 88%
    19:00 +27°C° 0,8 mm 4 m/s 748 mmHg 92%
    20:00 +27°C° 0,3 mm 4 m/s 748 mmHg 93%
    21:00 +26°C° 0,3 mm 4 m/s 748 mmHg 94%
    22:00 +26°C° 0 mm 4 m/s 749 mmHg 95%
    23:00 +26°C° 0,6 mm 4 m/s 749 mmHg 95%

    Mâine, 24 Ianuarie, Miercuri

    Timp Temperatura Precipitaţii Vânt Presiune Umiditate
    00:00 +26°C° 0,6 mm 4 m/s 748 mmHg 96%
    01:00 +26°C° 0,6 mm 4 m/s 748 mmHg 96%
    02:00 +26°C° 0,4 mm 4 m/s 748 mmHg 96%
    03:00 +26°C° 0,4 mm 4 m/s 748 mmHg 96%
    04:00 +26°C° 0,4 mm 4 m/s 747 mmHg 95%
    05:00 +26°C° 0,5 mm 5 m/s 747 mmHg 94%
    06:00 +26°C° 0,5 mm 5 m/s 748 mmHg 92%
    07:00 +26°C° 0,5 mm 5 m/s 748 mmHg 91%
    08:00 +27°C° 0,3 mm 5 m/s 748 mmHg 86%
    09:00 +29°C° 0,3 mm 5 m/s 748 mmHg 80%
    10:00 +30°C° 0,3 mm 5 m/s 748 mmHg 75%
    11:00 +32°C° 0,2 mm 5 m/s 747 mmHg 68%
    12:00 +33°C° 0,2 mm 5 m/s 747 mmHg 62%
    13:00 +35°C° 0,2 mm 5 m/s 746 mmHg 55%
    14:00 +34°C° 0,1 mm 5 m/s 746 mmHg 57%
    15:00 +34°C° 0,1 mm 5 m/s 746 mmHg 58%
    16:00 +34°C° 0,1 mm 5 m/s 745 mmHg 59%
    17:00 +33°C° 0 mm 5 m/s 745 mmHg 66%
    18:00 +30°C° 0 mm 5 m/s 745 mmHg 73%
    19:00 +29°C° 0 mm 4 m/s 746 mmHg 80%
    20:00 +28°C° 0 mm 4 m/s 746 mmHg 83%
    21:00 +28°C° 0 mm 3 m/s 746 mmHg 86%
    22:00 +27°C° 0 mm 3 m/s 747 mmHg 88%
    23:00 +27°C° 0,1 mm 3 m/s 747 mmHg 89%

    Poimâine, 25 Ianuarie, Joi

    Timp Temperatura Precipitaţii Vânt Presiune Umiditate
    00:00 +27°C° 0,1 mm 3 m/s 746 mmHg 89%
    01:00 +27°C° 0,1 mm 3 m/s 746 mmHg 89%
    02:00 +26°C° 0,3 mm 3 m/s 746 mmHg 89%
    03:00 +26°C° 0,3 mm 4 m/s 746 mmHg 89%
    04:00 +26°C° 0,3 mm 4 m/s 745 mmHg 89%
    05:00 +27°C° 0,3 mm 4 m/s 746 mmHg 89%
    06:00 +27°C° 0,3 mm 5 m/s 746 mmHg 88%
    07:00 +27°C° 0,3 mm 5 m/s 746 mmHg 88%
    08:00 +28°C° 0,3 mm 5 m/s 746 mmHg 82%
    09:00 +30°C° 0,3 mm 5 m/s 746 mmHg 77%
    10:00 +32°C° 0,3 mm 5 m/s 747 mmHg 71%
    11:00 +33°C° 0,7 mm 5 m/s 746 mmHg 71%
    12:00 +33°C° 0,7 mm 5 m/s 746 mmHg 72%
    13:00 +33°C° 0,7 mm 6 m/s 745 mmHg 72%
    14:00 +33°C° 0,7 mm 6 m/s 745 mmHg 74%
    15:00 +32°C° 0,7 mm 6 m/s 744 mmHg 77%
    16:00 +32°C° 0,7 mm 6 m/s 744 mmHg 79%
    17:00 +30°C° 0,8 mm 6 m/s 744 mmHg 83%
    18:00 +29°C° 0,8 mm 6 m/s 745 mmHg 87%
    19:00 +28°C° 0,8 mm 6 m/s 745 mmHg 91%
    20:00 +28°C° 0,6 mm 6 m/s 746 mmHg 91%
    21:00 +28°C° 0,6 mm 6 m/s 746 mmHg 92%
    22:00 +27°C° 0,6 mm 6 m/s 747 mmHg 93%
    23:00 +27°C° 0,7 mm 6 m/s 747 mmHg 93%

    26 Ianuarie, Vineri

    Timp Temperatura Precipitaţii Vânt Presiune Umiditate
    00:00 +27°C° 0,7 mm 6 m/s 746 mmHg 94%
    01:00 +27°C° 0,7 mm 6 m/s 746 mmHg 94%
    02:00 +26°C° 0,6 mm 5 m/s 746 mmHg 94%
    03:00 +26°C° 0,6 mm 5 m/s 745 mmHg 94%
    04:00 +26°C° 0,6 mm 5 m/s 745 mmHg 95%
    05:00 +26°C° 0,2 mm 5 m/s 745 mmHg 94%
    06:00 +26°C° 0,2 mm 5 m/s 746 mmHg 93%
    07:00 +27°C° 0,2 mm 5 m/s 746 mmHg 92%
    08:00 +28°C° 0,2 mm 5 m/s 746 mmHg 86%
    09:00 +29°C° 0,2 mm 6 m/s 747 mmHg 81%
    10:00 +30°C° 0,2 mm 6 m/s 747 mmHg 76%
    11:00 +32°C° 0,4 mm 6 m/s 746 mmHg 73%
    12:00 +33°C° 0,4 mm 6 m/s 746 mmHg 70%
    13:00 +34°C° 0,4 mm 6 m/s 745 mmHg 67%
    14:00 +33°C° 0,5 mm 6 m/s 745 mmHg 69%
    15:00 +33°C° 0,5 mm 7 m/s 744 mmHg 71%
    16:00 +32°C° 0,5 mm 7 m/s 744 mmHg 73%
    17:00 +30°C° 0,2 mm 7 m/s 744 mmHg 76%
    18:00 +30°C° 0,2 mm 7 m/s 745 mmHg 79%
    19:00 +29°C° 0,2 mm 7 m/s 745 mmHg 82%
    20:00 +29°C° 0,2 mm 7 m/s 746 mmHg 83%
    21:00 +28°C° 0,2 mm 7 m/s 747 mmHg 84%
    22:00 +28°C° 0,2 mm 7 m/s 747 mmHg 85%
    23:00 +28°C° 0,4 mm 7 m/s 747 mmHg 87%

    27 Ianuarie, Sâmbătă

    Timp Temperatura Precipitaţii Vânt Presiune Umiditate
    00:00 +27°C° 0,4 mm 7 m/s 746 mmHg 88%
    01:00 +27°C° 0,4 mm 6 m/s 746 mmHg 89%
    02:00 +27°C° 0,3 mm 6 m/s 746 mmHg 89%
    03:00 +27°C° 0,3 mm 6 m/s 745 mmHg 89%
    04:00 +27°C° 0,3 mm 6 m/s 745 mmHg 89%
    05:00 +27°C° 0,4 mm 6 m/s 745 mmHg 88%
    06:00 +27°C° 0,4 mm 6 m/s 746 mmHg 88%
    07:00 +27°C° 0,4 mm 6 m/s 746 mmHg 87%
    08:00 +28°C° 0,5 mm 6 m/s 746 mmHg 84%
    09:00 +29°C° 0,5 mm 6 m/s 746 mmHg 81%
    10:00 +29°C° 0,5 mm 6 m/s 747 mmHg 77%
    11:00 +30°C° 0,4 mm 7 m/s 746 mmHg 73%
    12:00 +32°C° 0,4 mm 7 m/s 746 mmHg 70%
    13:00 +33°C° 0,4 mm 7 m/s 745 mmHg 66%
    14:00 +33°C° 0,2 mm 7 m/s 745 mmHg 67%
    15:00 +32°C° 0,2 mm 7 m/s 744 mmHg 69%
    16:00 +32°C° 0,2 mm 7 m/s 744 mmHg 70%
    17:00 +30°C° 0,1 mm 7 m/s 744 mmHg 74%
    18:00 +29°C° 0,1 mm 7 m/s 745 mmHg 77%
    19:00 +28°C° 0,1 mm 7 m/s 745 mmHg 81%
    20:00 +28°C° 0 mm 7 m/s 746 mmHg 81%
    21:00 +28°C° 0 mm 7 m/s 746 mmHg 82%
    22:00 +28°C° 0 mm 7 m/s 746 mmHg 83%
    23:00 +27°C° 0,1 mm 7 m/s 746 mmHg 84%

    28 Ianuarie, Duminică

    Timp Temperatura Precipitaţii Vânt Presiune Umiditate
    00:00 +27°C° 0,1 mm 6 m/s 745 mmHg 85%
    01:00 +27°C° 0,1 mm 6 m/s 745 mmHg 86%
    02:00 +27°C° 0,3 mm 6 m/s 744 mmHg 86%
    03:00 +26°C° 0,3 mm 6 m/s 744 mmHg 87%
    04:00 +26°C° 0,3 mm 6 m/s 744 mmHg 87%
    05:00 +26°C° 0,2 mm 6 m/s 744 mmHg 87%
    06:00 +27°C° 0,2 mm 6 m/s 744 mmHg 87%
    07:00 +27°C° 0,2 mm 6 m/s 745 mmHg 87%
    08:00 +28°C° 0,3 mm 6 m/s 745 mmHg 83%
    09:00 +29°C° 0,3 mm 7 m/s 745 mmHg 79%
    10:00 +29°C° 0,3 mm 7 m/s 745 mmHg 75%
    11:00 +30°C° 0,1 mm 7 m/s 744 mmHg 71%
    12:00 +32°C° 0,1 mm 7 m/s 744 mmHg 68%
    13:00 +33°C° 0,1 mm 8 m/s 743 mmHg 64%
    14:00 +32°C° 0,1 mm 8 m/s 743 mmHg 66%
    15:00 +32°C° 0,1 mm 7 m/s 743 mmHg 68%
    16:00 +30°C° 0,1 mm 7 m/s 742 mmHg 70%
    17:00 +30°C° 0 mm 7 m/s 742 mmHg 72%
    18:00 +29°C° 0 mm 7 m/s 743 mmHg 75%
    19:00 +28°C° 0 mm 7 m/s 743 mmHg 78%
    20:00 +28°C° 0,1 mm 7 m/s 744 mmHg 79%
    21:00 +28°C° 0,1 mm 7 m/s 744 mmHg 81%
    22:00 +28°C° 0,1 mm 7 m/s 744 mmHg 82%
    23:00 +27°C° 0,1 mm 6 m/s 744 mmHg 83%
    Arată mai mult